sat.trackr.live / text

‹ back to catalog

IRIDIUM 153

NORAD 43078 · 2017-083J

PAYLOAD ACTIVE UNKNOWN

§ Identity

Operator
Country
US
Launch date
2017-12-23
Launch site
AFWTR
Launch vehicle
Mass (kg)
RCS (m²)

Purposes: comms

External: N2YO · Heavens-Above · Gunter

§ Orbital elements

Epoch: 2026-05-25T03:08:27.351168Z

Period
100.40 min
Inclination
86.3940°
Eccentricity
0.0002367
Mean motion
14.34219243 rev/d
Perigee alt
776.0 km
Apogee alt
779.4 km
Semi-major
7,155.8 km
B*
7.0034e-5
RAAN
300.1147°
Arg perigee
92.6334°
Mean anomaly
267.5133°
Rev number
44,197

§ Raw data

IRIDIUM 1531 43078U 17083J   26145.13087212  .00000216  00000+0  70034-4 0  99992 43078  86.3940 300.1147 0002367  92.6334 267.5133 14.34219243441970

JSON: /api/v1/satellites/43078 · /tle

For live sub-satellite position, see the globe view (requires WebGL).

§ Visibility from observer

Set your observer location to see the next 7 days of passes ≥ 10°. The values pass through the URL so the page stays shareable.

No JS? Fill the form by hand. The geolocation button needs JavaScript.